Location: Strawberry
(45.6646°N, 111.9596°W)
Time: 00:26:55
(UTC+00:00)

Vanguard 1 Rocket - Pass Details

Date: 03 October 2022
Orbit: 650 x 4225 km, 34.3° (Epoch: 05 December)

Event Time Altitude Azimuth Distance (km) Brightness Sun altitude
Rises 05:06:11 0° 255° (WSW) 7,546 12.4 -39.5°
Reaches altitude 10° 05:12:13 10° 251° (WSW) 6,002 11.7 -40.2°
Enters shadow 05:23:42 39° 222° (SW) 3,006 9.8 -41.5°
